Tracking 19903 objects as of 16-Oct-2019
HD Live streaming from Space Station
objects crossing your sky now

SCOUT G-1 R/B

Track SCOUT G-1 R/B now!
10-day predictions


NORAD ID: 17071
Int'l Code: 1986-088B
Perigee: 959.3 km
Apogee: 1,017.5 km
Inclination: 89.5 °
Period: 104.7 minutes
Semi major axis: 7359 km
RCS: 0.8546 m2 (medium)
Launch date: November 14, 1986
Source: United States (US)
Launch site: AIR FORCE WESTERN TEST RANGE (AFWTR)

Note: This is a ROCKET BODY
aabbcc
Your satellite tracking list
Your tracking list is empty




NASA's NSSDC Master Catalog

Two Line Element Set (TLE):
1 17071U 86088B   19288.88583291 +.00000023 +00000-0 +11941-4 0  9993
2 17071 089.5177 276.3878 0039583 048.8144 311.6424 13.75116452651001
Source of the keplerian elements: AFSPC